,,,PA_Meas_PMT16A,,PR_Meas_QMR101_102,,RH_Meas_QMH101,,SR_Meas_QMS101,,TA_Meas_QMH101,,GenWind,,GenWind,
date,time,status,PA,status,PR,status,RH,status,SR,status,TA,status,DirAvg,status,SpdAvg,
2010-01-06, 00:00:04,VALID,1002.51,VALID,0,VALID,90.0132,VALID,0,VALID,25.4539,VALID,302,VALID,0,
2010-01-06, 00:01:04,VALID,1002.48,VALID,0,VALID,90.1047,VALID,0,VALID,25.4344,VALID,302,VALID,0,
2010-01-06, 00:02:04,VALID,1002.47,VALID,0,VALID,90.1352,VALID,0,VALID,25.4363,VALID,303,VALID,0,
2010-01-06, 00:03:04,VALID,1002.43,VALID,0,VALID,90.2115,VALID,0,VALID,25.4363,VALID,304,VALID,0,
2010-01-06, 00:04:04,VALID,1002.44,VALID,0,VALID,90.181,VALID,0,VALID,25.4149,VALID,304,VALID,0,
2010-01-06, 00:05:04,VALID,1002.41,VALID,0,VALID,90.242,VALID,0,VALID,25.3955,VALID,311,VALID,0,
2010-01-06, 00:06:04,VALID,1002.39,VALID,0,VALID,90.3107,VALID,0,VALID,25.376,VALID,311,VALID,0,
2010-01-06, 00:07:04,VALID,1002.37,VALID,0,VALID,90.3488,VALID,0,VALID,25.3565,VALID,311,VALID,0,
2010-01-06, 00:08:04,VALID,1002.37,VALID,0,VALID,90.4633,VALID,0,VALID,25.337,VALID,311,VALID,0,
2010-01-06, 00:09:04,VALID,1002.35,VALID,0,VALID,90.5014,VALID,0,VALID,25.339,VALID,311,VALID,0,
2010-01-06, 00:10:04,VALID,1002.36,VALID,0,VALID,90.5472,VALID,0,VALID,25.2981,VALID,282,VALID,0,
2010-01-06, 00:11:04,VALID,1002.33,VALID,0,VALID,90.7074,VALID,0,VALID,25.2611,VALID,282,VALID,0,
2010-01-06, 00:12:04,VALID,1002.37,VALID,0,VALID,90.8676,VALID,0,VALID,25.2416,VALID,282,VALID,0,
2010-01-06, 00:13:04,VALID,1002.41,VALID,0,VALID,90.982,VALID,0,VALID,25.1618,VALID,282,VALID,0,
2010-01-06, 00:14:04,VALID,1002.38,VALID,0,VALID,91.127,VALID,0,VALID,25.1637,VALID,282,VALID,0,
2010-01-06, 00:15:04,VALID,1002.38,VALID,0,VALID,91.2567,VALID,0,VALID,25.1423,VALID,282,VALID,0,
2010-01-06, 00:16:04,VALID,1002.39,VALID,0,VALID,91.3558,VALID,0,VALID,25.1229,VALID,284,VALID,0,
2010-01-06, 00:17:04,VALID,1002.39,VALID,0,VALID,91.4321,VALID,0,VALID,25.1034,VALID,284,VALID,0,
2010-01-06, 00:18:04,VALID,1002.41,VALID,0,VALID,91.4398,VALID,0,VALID,25.0644,VALID,284,VALID,0,
2010-01-06, 00:19:04,VALID,1002.41,VALID,0,VALID,91.4779,VALID,0,VALID,25.0663,VALID,284,VALID,0,
2010-01-06, 00:20:04,VALID,1002.41,VALID,0,VALID,91.5389,VALID,0,VALID,25.006,VALID,284,VALID,0,
2010-01-06, 00:21:04,VALID,1002.43,VALID,0,VALID,91.5771,VALID,0,VALID,25.0079,VALID,284,VALID,0,
2010-01-06, 00:22:04,VALID,1002.45,VALID,0,VALID,91.6457,VALID,0,VALID,24.9885,VALID,284,VALID,0,
2010-01-06, 00:23:04,VALID,1002.43,VALID,0,VALID,91.6991,VALID,0,VALID,24.9282,VALID,284,VALID,0,
2010-01-06, 00:24:04,VALID,1002.44,VALID,0,VALID,91.7525,VALID,0,VALID,24.9106,VALID,358,VALID,0,
2010-01-06, 00:25:04,VALID,1002.44,VALID,0,VALID,91.8365,VALID,0,VALID,24.9106,VALID,2,VALID,0,
2010-01-06, 00:26:04,VALID,1002.44,VALID,0,VALID,91.8899,VALID,0,VALID,24.8308,VALID,2,VALID,0,
2010-01-06, 00:27:04,VALID,1002.45,VALID,0,VALID,92.0119,VALID,0,VALID,24.8327,VALID,2,VALID,0,
2010-01-06, 00:28:04,VALID,1002.48,VALID,0,VALID,92.1187,VALID,0,VALID,24.8113,VALID,2,VALID,0,
2010-01-06, 00:29:04,VALID,1002.46,VALID,0,VALID,92.2179,VALID,0,VALID,24.7919,VALID,2,VALID,0,
2010-01-06, 00:30:04,VALID,1002.46,VALID,0,VALID,92.2789,VALID,0,VALID,24.8132,VALID,2,VALID,0,
2010-01-06, 00:31:04,VALID,1002.45,VALID,0,VALID,92.3018,VALID,0,VALID,24.7724,VALID,2,VALID,0,
2010-01-06, 00:32:04,VALID,1002.42,VALID,0,VALID,92.3247,VALID,0,VALID,24.7529,VALID,2,VALID,0,
2010-01-06, 00:33:04,VALID,1002.39,VALID,0,VALID,92.3552,VALID,0,VALID,24.7529,VALID,2,VALID,0,
2010-01-06, 00:34:04,VALID,1002.36,VALID,0,VALID,92.4239,VALID,0,VALID,24.7529,VALID,2,VALID,0,
2010-01-06, 00:35:04,VALID,1002.34,VALID,0,VALID,92.4697,VALID,0,VALID,24.7529,VALID,2,VALID,0,
2010-01-06, 00:36:04,VALID,1002.31,VALID,0,VALID,92.4773,VALID,0,VALID,24.7529,VALID,2,VALID,0,
2010-01-06, 00:37:04,VALID,1002.31,VALID,0,VALID,92.5154,VALID,0,VALID,24.7548,VALID,2,VALID,0,
2010-01-06, 00:38:04,VALID,1002.29,VALID,0,VALID,92.5688,VALID,0,VALID,24.7353,VALID,356,VALID,0.198047,
2010-01-06, 00:39:04,VALID,1002.24,VALID,0,VALID,92.668,VALID,0,VALID,24.7529,VALID,355,VALID,0.503125,
2010-01-06, 00:40:04,VALID,1002.22,VALID,0,VALID,92.7901,VALID,0,VALID,24.8113,VALID,354,VALID,0,
2010-01-06, 00:41:04,VALID,1002.19,VALID,0,VALID,92.8892,VALID,0,VALID,24.8697,VALID,349,VALID,0.343359,
2010-01-06, 00:42:04,VALID,1002.17,VALID,0,VALID,92.9579,VALID,0,VALID,24.9495,VALID,333,VALID,0.113281,
2010-01-06, 00:43:04,VALID,1002.14,VALID,0,VALID,93.0189,VALID,0,VALID,25.0079,VALID,3,VALID,0.687109,
2010-01-06, 00:44:04,VALID,1002.12,VALID,0,VALID,93.08,VALID,0,VALID,25.0644,VALID,334,VALID,0.222266,
2010-01-06, 00:45:04,VALID,1002.1,VALID,0,VALID,93.1105,VALID,0,VALID,25.1034,VALID,321,VALID,0.212891,
2010-01-06, 00:46:04,VALID,1002.11,VALID,0,VALID,93.0952,VALID,0,VALID,25.1423,VALID,332,VALID,0.509375,
2010-01-06, 00:47:04,VALID,1002.09,VALID,0,VALID,93.08,VALID,0,VALID,25.2202,VALID,347,VALID,0.88125,
2010-01-06, 00:48:04,VALID,1002.07,VALID,0,VALID,93.0189,VALID,0,VALID,25.2592,VALID,355,VALID,0.598828,
2010-01-06, 00:49:04,VALID,1002.03,VALID,0,VALID,92.9579,VALID,0,VALID,25.337,VALID,349,VALID,1.3875,
2010-01-06, 00:50:04,VALID,1002.06,VALID,0,VALID,92.8206,VALID,0,VALID,25.3974,VALID,340,VALID,0.444141,
2010-01-06, 00:51:04,VALID,1002.02,VALID,0,VALID,92.6756,VALID,0,VALID,25.3955,VALID,357,VALID,0.582422,
2010-01-06, 00:52:04,VALID,1002.03,VALID,0,VALID,92.5078,VALID,0.100563,VALID,25.4344,VALID,351,VALID,0.863281,
2010-01-06, 00:53:04,VALID,1002.01,VALID,0,VALID,92.3552,VALID,0,VALID,25.4753,VALID,344,VALID,0.923047,
2010-01-06, 00:54:04,VALID,1002.01,VALID,0,VALID,92.2255,VALID,0,VALID,25.5142,VALID,324,VALID,0.482422,
2010-01-06, 00:55:04,VALID,1001.97,VALID,0,VALID,92.0806,VALID,0.100563,VALID,25.5123,VALID,349,VALID,0.858594,
2010-01-06, 00:56:04,VALID,1001.99,VALID,0,VALID,91.9738,VALID,0,VALID,25.5337,VALID,351,VALID,1.12852,
2010-01-06, 00:57:04,VALID,1001.98,VALID,0,VALID,91.8365,VALID,0,VALID,25.5318,VALID,342,VALID,0.565625,
2010-01-06, 00:58:04,VALID,1001.97,VALID,0,VALID,91.7144,VALID,0.100563,VALID,25.5318,VALID,343,VALID,0.483984,
2010-01-06, 00:59:04,VALID,1001.94,VALID,0,VALID,91.6,VALID,0.100563,VALID,25.5318,VALID,348,VALID,0.6875,
2010-01-06, 01:00:04,VALID,1001.95,VALID,0,VALID,91.5466,VALID,0.100563,VALID,25.5513,VALID,358,VALID,0.565234,
2010-01-06, 01:01:04,VALID,1001.93,VALID,0,VALID,91.4398,VALID,0,VALID,25.5513,VALID,356,VALID,0.858984,
2010-01-06, 01:02:04,VALID,1001.94,VALID,0,VALID,91.3635,VALID,0.100563,VALID,25.5513,VALID,350,VALID,0.424219,
2010-01-06, 01:03:04,VALID,1001.97,VALID,0,VALID,91.2567,VALID,0,VALID,25.5727,VALID,359,VALID,0.316016,
2010-01-06, 01:04:04,VALID,1001.97,VALID,0,VALID,91.1956,VALID,0,VALID,25.5707,VALID,345,VALID,0.0988281,
2010-01-06, 01:05:04,VALID,1001.95,VALID,0,VALID,91.1193,VALID,0,VALID,25.5513,VALID,348,VALID,0.907812,
2010-01-06, 01:06:04,VALID,1001.99,VALID,0,VALID,91.0736,VALID,0,VALID,25.5707,VALID,295,VALID,0,
2010-01-06, 01:07:05,VALID,1001.97,VALID,0,VALID,90.9668,VALID,0.100563,VALID,25.5707,VALID,3,VALID,0.732813,
2010-01-06, 01:08:05,VALID,1001.96,VALID,0,VALID,90.8676,VALID,0,VALID,25.5707,VALID,350,VALID,0.175781,
2010-01-06, 01:09:05,VALID,1001.96,VALID,0,VALID,90.7608,VALID,0,VALID,25.5921,VALID,341,VALID,0.169531,
2010-01-06, 01:10:05,VALID,1001.95,VALID,0,VALID,90.6616,VALID,0,VALID,25.5707,VALID,294,VALID,0.04375,
2010-01-06, 01:11:05,VALID,1001.98,VALID,0,VALID,90.5777,VALID,0,VALID,25.5921,VALID,267,VALID,0.259766,
2010-01-06, 01:12:05,VALID,1001.96,VALID,0,VALID,90.5548,VALID,0,VALID,25.5707,VALID,267,VALID,0.346484,
2010-01-06, 01:13:05,VALID,1001.96,VALID,0,VALID,90.4785,VALID,0.100563,VALID,25.5688,VALID,297,VALID,0.584375,
2010-01-06, 01:14:05,VALID,1001.96,VALID,0,VALID,90.3412,VALID,0,VALID,25.6116,VALID,306,VALID,0.269141,
2010-01-06, 01:15:05,VALID,1001.96,VALID,0,VALID,90.2115,VALID,0,VALID,25.6311,VALID,300,VALID,0.275781,
2010-01-06, 01:16:05,VALID,1001.97,VALID,0,VALID,90.1352,VALID,0.100563,VALID,25.6097,VALID,291,VALID,0.451953,
2010-01-06, 01:17:05,VALID,1001.95,VALID,0,VALID,90.12,VALID,0,VALID,25.6292,VALID,296,VALID,0.542969,
2010-01-06, 01:18:05,VALID,1001.98,VALID,0,VALID,90.0284,VALID,0,VALID,25.6292,VALID,288,VALID,0.76875,
2010-01-06, 01:19:05,VALID,1001.95,VALID,0,VALID,89.8911,VALID,0,VALID,25.6292,VALID,276,VALID,0.400391,
2010-01-06, 01:20:05,VALID,1001.93,VALID,0,VALID,89.853,VALID,0,VALID,25.6506,VALID,349,VALID,0.234766,
2010-01-06, 01:21:05,VALID,1001.93,VALID,0,VALID,89.8835,VALID,0,VALID,25.6486,VALID,344,VALID,0.135547,
2010-01-06, 01:22:05,VALID,1001.91,VALID,0,VALID,89.8453,VALID,0,VALID,25.6292,VALID,327,VALID,0.195703,
2010-01-06, 01:23:05,VALID,1001.9,VALID,0,VALID,89.8224,VALID,0.100563,VALID,25.6292,VALID,329,VALID,0.138281,
2010-01-06, 01:24:05,VALID,1001.86,VALID,0,VALID,89.8377,VALID,0,VALID,25.6506,VALID,313,VALID,0.162891,
2010-01-06, 01:25:05,VALID,1001.85,VALID,0,VALID,89.7996,VALID,0,VALID,25.6292,VALID,313,VALID,0.00585938,
2010-01-06, 01:26:05,VALID,1001.8,VALID,0,VALID,89.7461,VALID,0,VALID,25.6506,VALID,313,VALID,0.121484,
2010-01-06, 01:27:05,VALID,1001.8,VALID,0,VALID,89.6393,VALID,0,VALID,25.6292,VALID,325,VALID,0.276563,
2010-01-06, 01:28:05,VALID,1001.75,VALID,0,VALID,89.6622,VALID,0,VALID,25.5883,VALID,328,VALID,0.218359,
2010-01-06, 01:29:05,VALID,1001.73,VALID,0,VALID,89.6165,VALID,0,VALID,25.6311,VALID,270,VALID,0.197266,
2010-01-06, 01:30:05,VALID,1001.64,VALID,0,VALID,89.5097,VALID,0,VALID,25.5902,VALID,304,VALID,0.275781,
2010-01-06, 01:31:05,VALID,1001.61,VALID,0,VALID,89.441,VALID,0,VALID,25.5688,VALID,293,VALID,0.19375,
2010-01-06, 01:32:05,VALID,1001.56,VALID,0,VALID,89.38,VALID,0.100563,VALID,25.5707,VALID,287,VALID,0.323047,
2010-01-06, 01:33:05,VALID,1001.53,VALID,0,VALID,89.2426,VALID,0,VALID,25.5707,VALID,335,VALID,0.601172,
2010-01-06, 01:34:05,VALID,1001.46,VALID,0,VALID,89.1969,VALID,0,VALID,25.5921,VALID,315,VALID,0.602344,
2010-01-06, 01:35:05,VALID,1001.42,VALID,0,VALID,89.1511,VALID,0,VALID,25.5707,VALID,1,VALID,0.308984,
2010-01-06, 01:36:05,VALID,1001.4,VALID,0,VALID,89.029,VALID,0.100563,VALID,25.5318,VALID,352,VALID,1.19219,
2010-01-06, 01:37:05,VALID,1001.35,VALID,0,VALID,89.0595,VALID,0,VALID,25.5318,VALID,346,VALID,0.709766,
2010-01-06, 01:38:05,VALID,1001.32,VALID,0,VALID,89.0595,VALID,0,VALID,25.5123,VALID,2,VALID,0.871094,
2010-01-06, 01:39:05,VALID,1001.27,VALID,0,VALID,89.113,VALID,0,VALID,25.5142,VALID,354,VALID,0.896094,
2010-01-06, 01:40:05,VALID,1001.23,VALID,0,VALID,89.1511,VALID,0,VALID,25.4539,VALID,355,VALID,0.493359,
2010-01-06, 01:41:05,VALID,1001.23,VALID,0,VALID,89.2045,VALID,0,VALID,25.4344,VALID,358,VALID,0.483203,
2010-01-06, 01:42:05,VALID,1001.21,VALID,0,VALID,89.2198,VALID,0,VALID,25.4149,VALID,2,VALID,0.562109,
2010-01-06, 01:43:05,VALID,1001.2,VALID,0,VALID,89.1892,VALID,0,VALID,25.3955,VALID,321,VALID,0.582031,
2010-01-06, 01:44:05,VALID,1001.18,VALID,0,VALID,89.0901,VALID,0,VALID,25.3955,VALID,337,VALID,0.823047,
2010-01-06, 01:45:05,VALID,1001.23,VALID,0,VALID,89.0824,VALID,0,VALID,25.4149,VALID,339,VALID,0.528516,
2010-01-06, 01:46:05,VALID,1001.23,VALID,0,VALID,88.9985,VALID,0,VALID,25.4149,VALID,254,VALID,0.544922,
2010-01-06, 01:47:05,VALID,1001.23,VALID,0,VALID,88.8688,VALID,0,VALID,25.4344,VALID,6,VALID,0.780859,
2010-01-06, 01:48:05,VALID,1001.26,VALID,0,VALID,88.5179,VALID,0,VALID,25.4558,VALID,342,VALID,0.588281,
2010-01-06, 01:49:05,VALID,1001.26,VALID,0,VALID,88.4187,VALID,0,VALID,25.4539,VALID,285,VALID,0.535547,
2010-01-06, 01:50:05,VALID,1001.28,VALID,0,VALID,88.5026,VALID,0,VALID,25.4948,VALID,333,VALID,0.371484,
2010-01-06, 01:51:05,VALID,1001.27,VALID,0,VALID,88.3272,VALID,0,VALID,25.4948,VALID,305,VALID,0.122656,
2010-01-06, 01:52:05,VALID,1001.3,VALID,0,VALID,88.3729,VALID,0.100563,VALID,25.4948,VALID,306,VALID,0,
2010-01-06, 01:53:05,VALID,1001.33,VALID,0,VALID,88.2585,VALID,0,VALID,25.5142,VALID,358,VALID,1.16328,
2010-01-06, 01:54:05,VALID,1001.35,VALID,0,VALID,88.0602,VALID,0,VALID,25.4948,VALID,305,VALID,0.2875,
2010-01-06, 01:55:05,VALID,1001.41,VALID,0,VALID,88.1136,VALID,0,VALID,25.4928,VALID,341,VALID,0.267969,
2010-01-06, 01:56:05,VALID,1001.42,VALID,0,VALID,88.0678,VALID,0.100563,VALID,25.5123,VALID,281,VALID,1.04375,
2010-01-06, 01:57:05,VALID,1001.47,VALID,0,VALID,87.9228,VALID,0,VALID,25.5337,VALID,274,VALID,0.844531,
2010-01-06, 01:58:05,VALID,1001.48,VALID,0,VALID,87.9534,VALID,0,VALID,25.5318,VALID,330,VALID,0.0195313,
2010-01-06, 01:59:05,VALID,1001.49,VALID,0,VALID,87.9381,VALID,0,VALID,25.5513,VALID,260,VALID,0.235156,
2010-01-06, 02:00:05,VALID,1001.49,VALID,0,VALID,87.7321,VALID,0,VALID,25.5727,VALID,306,VALID,0.716016,
2010-01-06, 02:01:05,VALID,1001.5,VALID,0,VALID,87.7092,VALID,0,VALID,25.5707,VALID,324,VALID,0.905469,
2010-01-06, 02:02:05,VALID,1001.5,VALID,0,VALID,87.755,VALID,0,VALID,25.6116,VALID,321,VALID,0.295312,
2010-01-06, 02:03:05,VALID,1001.45,VALID,0,VALID,87.755,VALID,0,VALID,25.6311,VALID,324,VALID,0.141797,
2010-01-06, 02:04:05,VALID,1001.49,VALID,0,VALID,87.8237,VALID,0,VALID,25.6311,VALID,314,VALID,0.260547,
2010-01-06, 02:05:05,VALID,1001.43,VALID,0,VALID,87.9457,VALID,0,VALID,25.6311,VALID,284,VALID,0.589453,
2010-01-06, 02:06:05,VALID,1001.42,VALID,0,VALID,87.8237,VALID,0,VALID,25.5902,VALID,314,VALID,0.433594,
2010-01-06, 02:07:05,VALID,1001.4,VALID,0,VALID,87.9076,VALID,0.100563,VALID,25.5902,VALID,296,VALID,0.307422,
2010-01-06, 02:08:05,VALID,1001.37,VALID,0,VALID,88.0525,VALID,0,VALID,25.5902,VALID,298,VALID,0.0328125,
2010-01-06, 02:09:05,VALID,1001.34,VALID,0,VALID,87.8923,VALID,0,VALID,25.5513,VALID,280,VALID,0.962891,
2010-01-06, 02:10:05,VALID,1001.29,VALID,0,VALID,87.9534,VALID,0,VALID,25.5727,VALID,281,VALID,0.15625,
2010-01-06, 02:11:05,VALID,1001.28,VALID,0,VALID,87.9228,VALID,0,VALID,25.5727,VALID,281,VALID,0.213281,
2010-01-06, 02:12:05,VALID,1001.27,VALID,0,VALID,87.9915,VALID,0,VALID,25.5337,VALID,282,VALID,0.238281,
2010-01-06, 02:13:05,VALID,1001.22,VALID,0,VALID,87.9305,VALID,0,VALID,25.5123,VALID,355,VALID,0.581641,
2010-01-06, 02:14:05,VALID,1001.24,VALID,0,VALID,87.8389,VALID,0,VALID,25.5337,VALID,351,VALID,0.799609,
2010-01-06, 02:15:05,VALID,1001.2,VALID,0,VALID,87.8313,VALID,0,VALID,25.5337,VALID,323,VALID,0.578516,
2010-01-06, 02:16:05,VALID,1001.22,VALID,0,VALID,87.8313,VALID,0,VALID,25.5123,VALID,340,VALID,0.359766,
2010-01-06, 02:17:05,VALID,1001.21,VALID,0,VALID,87.7779,VALID,0,VALID,25.5337,VALID,349,VALID,1.02266,
2010-01-06, 02:18:05,VALID,1001.21,VALID,0,VALID,87.8008,VALID,0,VALID,25.5142,VALID,353,VALID,0.619922,
2010-01-06, 02:19:05,VALID,1001.21,VALID,0,VALID,87.8847,VALID,0,VALID,25.4734,VALID,351,VALID,0.330469,
2010-01-06, 02:20:05,VALID,1001.24,VALID,0,VALID,87.9381,VALID,0,VALID,25.4734,VALID,9,VALID,0.520312,
2010-01-06, 02:21:05,VALID,1001.26,VALID,0,VALID,87.9228,VALID,0.100563,VALID,25.4948,VALID,360,VALID,0.355078,
2010-01-06, 02:22:05,VALID,1001.29,VALID,0,VALID,87.9686,VALID,0,VALID,25.4734,VALID,274,VALID,0.320703,
2010-01-06, 02:23:05,VALID,1001.36,VALID,0,VALID,88.0373,VALID,0,VALID,25.4753,VALID,275,VALID,0,
2010-01-06, 02:24:05,VALID,1001.38,VALID,0,VALID,88.0296,VALID,0,VALID,25.4539,VALID,277,VALID,0.344531,
2010-01-06, 02:25:05,VALID,1001.42,VALID,0,VALID,87.9991,VALID,0,VALID,25.4558,VALID,289,VALID,1.08281,
2010-01-06, 02:26:05,VALID,1001.43,VALID,0,VALID,87.9686,VALID,0,VALID,25.4753,VALID,288,VALID,0.748828,
2010-01-06, 02:27:05,VALID,1001.44,VALID,0,VALID,87.9839,VALID,0,VALID,25.4539,VALID,278,VALID,0.543359,
2010-01-06, 02:28:05,VALID,1001.47,VALID,0,VALID,88.1136,VALID,0,VALID,25.4734,VALID,271,VALID,0.219922,
2010-01-06, 02:29:05,VALID,1001.49,VALID,0,VALID,88.167,VALID,0,VALID,25.4539,VALID,271,VALID,0.184766,
2010-01-06, 02:30:05,VALID,1001.5,VALID,0,VALID,88.167,VALID,0,VALID,25.4753,VALID,271,VALID,0,
2010-01-06, 02:31:05,VALID,1001.5,VALID,0,VALID,88.1746,VALID,0,VALID,25.4539,VALID,319,VALID,0,
2010-01-06, 02:32:05,VALID,1001.5,VALID,0,VALID,88.1975,VALID,0.100563,VALID,25.4539,VALID,354,VALID,0.415234,
2010-01-06, 02:33:05,VALID,1001.5,VALID,0,VALID,88.3424,VALID,0,VALID,25.4539,VALID,354,VALID,0,
2010-01-06, 02:34:05,VALID,1001.52,VALID,0,VALID,88.3958,VALID,0,VALID,25.4558,VALID,354,VALID,0.0832031,
2010-01-06, 02:35:05,VALID,1001.53,VALID,0,VALID,88.5255,VALID,0,VALID,25.4558,VALID,320,VALID,0.435547,
2010-01-06, 02:36:05,VALID,1001.52,VALID,0,VALID,88.6552,VALID,0,VALID,25.4363,VALID,304,VALID,0,
2010-01-06, 02:37:05,VALID,1001.49,VALID,0,VALID,88.5026,VALID,0,VALID,25.4149,VALID,268,VALID,0.672656,
2010-01-06, 02:38:05,VALID,1001.47,VALID,0,VALID,88.5179,VALID,0,VALID,25.4344,VALID,274,VALID,0,
2010-01-06, 02:39:05,VALID,1001.43,VALID,0,VALID,88.6552,VALID,0,VALID,25.4753,VALID,275,VALID,0,
2010-01-06, 02:40:05,VALID,1001.42,VALID,0,VALID,88.6628,VALID,0,VALID,25.4344,VALID,271,VALID,0.337109,
2010-01-06, 02:41:05,VALID,1001.37,VALID,0,VALID,88.7391,VALID,0,VALID,25.4753,VALID,272,VALID,0.139062,
2010-01-06, 02:42:05,VALID,1001.35,VALID,0,VALID,88.4874,VALID,0,VALID,25.4539,VALID,289,VALID,0.625,
2010-01-06, 02:43:05,VALID,1001.32,VALID,0,VALID,88.2585,VALID,0,VALID,25.4753,VALID,285,VALID,0.877344,
2010-01-06, 02:44:05,VALID,1001.31,VALID,0,VALID,88.0983,VALID,0,VALID,25.4948,VALID,296,VALID,0.890625,
2010-01-06, 02:45:05,VALID,1001.33,VALID,0,VALID,87.9915,VALID,0.100563,VALID,25.4928,VALID,290,VALID,0.415625,
2010-01-06, 02:46:05,VALID,1001.3,VALID,0,VALID,88.0678,VALID,0,VALID,25.5318,VALID,288,VALID,0.330078,
2010-01-06, 02:47:05,VALID,1001.29,VALID,0,VALID,88.0373,VALID,0,VALID,25.5532,VALID,4,VALID,0.603516,
2010-01-06, 02:48:05,VALID,1001.29,VALID,0,VALID,88.0449,VALID,0,VALID,25.5532,VALID,360,VALID,0,
2010-01-06, 02:49:05,VALID,1001.28,VALID,0,VALID,88.0754,VALID,0,VALID,25.5532,VALID,351,VALID,0.717188,
2010-01-06, 02:50:05,VALID,1001.29,VALID,0,VALID,88.2585,VALID,0.100563,VALID,25.5532,VALID,356,VALID,0.828125,
2010-01-06, 02:51:05,VALID,1001.27,VALID,0,VALID,88.2433,VALID,0,VALID,25.5337,VALID,353,VALID,0.591406,
2010-01-06, 02:52:05,VALID,1001.28,VALID,0,VALID,88.4416,VALID,0.100563,VALID,25.4928,VALID,351,VALID,0.505078,
2010-01-06, 02:53:05,VALID,1001.27,VALID,0,VALID,88.4416,VALID,0,VALID,25.4734,VALID,350,VALID,0.408984,
2010-01-06, 02:54:05,VALID,1001.31,VALID,0,VALID,88.4492,VALID,0,VALID,25.4539,VALID,350,VALID,0.401563,
2010-01-06, 02:55:05,VALID,1001.29,VALID,0,VALID,88.6094,VALID,0,VALID,25.4558,VALID,350,VALID,0.382813,
2010-01-06, 02:56:05,VALID,1001.3,VALID,0,VALID,88.7086,VALID,0,VALID,25.4344,VALID,349,VALID,0.457812,
2010-01-06, 02:57:05,VALID,1001.35,VALID,0,VALID,88.7697,VALID,0,VALID,25.4149,VALID,349,VALID,0.163281,
2010-01-06, 02:58:05,VALID,1001.33,VALID,0,VALID,88.8231,VALID,0,VALID,25.4169,VALID,349,VALID,0,
2010-01-06, 02:59:05,VALID,1001.34,VALID,0,VALID,88.8841,VALID,0.100563,VALID,25.4149,VALID,349,VALID,0,
2010-01-06, 03:00:05,VALID,1001.35,VALID,0,VALID,88.9985,VALID,0,VALID,25.3955,VALID,349,VALID,0,
2010-01-06, 03:01:05,VALID,1001.34,VALID,0,VALID,89.0367,VALID,0,VALID,25.4363,VALID,349,VALID,0,
2010-01-06, 03:02:05,VALID,1001.34,VALID,0,VALID,88.9222,VALID,0,VALID,25.4363,VALID,349,VALID,0,
2010-01-06, 03:03:05,VALID,1001.35,VALID,0,VALID,88.8993,VALID,0.100563,VALID,25.4149,VALID,349,VALID,0,
2010-01-06, 03:04:05,VALID,1001.32,VALID,0,VALID,89.029,VALID,0,VALID,25.4363,VALID,349,VALID,0,
2010-01-06, 03:05:05,VALID,1001.31,VALID,0,VALID,88.9985,VALID,0,VALID,25.4363,VALID,349,VALID,0,
2010-01-06, 03:06:05,VALID,1001.31,VALID,0,VALID,89.0595,VALID,0,VALID,25.4363,VALID,349,VALID,0,
2010-01-06, 03:07:05,VALID,1001.29,VALID,0,VALID,89.1053,VALID,0,VALID,25.4558,VALID,349,VALID,0,
2010-01-06, 03:08:05,VALID,1001.29,VALID,0,VALID,89.3113,VALID,0,VALID,25.4558,VALID,349,VALID,0,
2010-01-06, 03:09:05,VALID,1001.29,VALID,0,VALID,89.4257,VALID,0,VALID,25.4558,VALID,349,VALID,0,
2010-01-06, 03:10:05,VALID,1001.25,VALID,0,VALID,89.5402,VALID,0,VALID,25.4363,VALID,349,VALID,0,
2010-01-06, 03:11:05,VALID,1001.26,VALID,0,VALID,89.5707,VALID,0,VALID,25.4169,VALID,349,VALID,0,
2010-01-06, 03:12:05,VALID,1001.28,VALID,0,VALID,89.6165,VALID,0,VALID,25.3955,VALID,349,VALID,0,
2010-01-06, 03:13:05,VALID,1001.26,VALID,0,VALID,89.7309,VALID,0,VALID,25.3955,VALID,349,VALID,0,
2010-01-06, 03:14:05,VALID,1001.25,VALID,0,VALID,89.8072,VALID,0,VALID,25.4169,VALID,349,VALID,0,
2010-01-06, 03:15:05,VALID,1001.28,VALID,0,VALID,89.9674,VALID,0,VALID,25.3779,VALID,349,VALID,0,
2010-01-06, 03:16:05,VALID,1001.28,VALID,0,VALID,90.1581,VALID,0,VALID,25.3565,VALID,349,VALID,0,
2010-01-06, 03:17:05,VALID,1001.24,VALID,0,VALID,90.2649,VALID,0,VALID,25.3779,VALID,349,VALID,0,
2010-01-06, 03:18:05,VALID,1001.25,VALID,0,VALID,90.2725,VALID,0,VALID,25.3584,VALID,349,VALID,0,
2010-01-06, 03:19:05,VALID,1001.25,VALID,0,VALID,90.2725,VALID,0,VALID,25.3176,VALID,349,VALID,0,
2010-01-06, 03:20:05,VALID,1001.26,VALID,0,VALID,90.2802,VALID,0,VALID,25.3195,VALID,349,VALID,0,
2010-01-06, 03:21:05,VALID,1001.22,VALID,0,VALID,90.2573,VALID,0,VALID,25.3195,VALID,349,VALID,0,
2010-01-06, 03:22:05,VALID,1001.22,VALID,0,VALID,90.3031,VALID,0,VALID,25.3195,VALID,349,VALID,0,
2010-01-06, 03:23:05,VALID,1001.21,VALID,0,VALID,90.387,VALID,0,VALID,25.3,VALID,349,VALID,0,
2010-01-06, 03:24:05,VALID,1001.18,VALID,0,VALID,90.4862,VALID,0,VALID,25.2806,VALID,349,VALID,0,
2010-01-06, 03:25:05,VALID,1001.22,VALID,0,VALID,90.6921,VALID,0,VALID,25.2592,VALID,349,VALID,0,
2010-01-06, 03:26:05,VALID,1001.21,VALID,0,VALID,90.8142,VALID,0,VALID,25.2806,VALID,349,VALID,0,
2010-01-06, 03:27:05,VALID,1001.22,VALID,0,VALID,90.8829,VALID,0,VALID,25.2397,VALID,349,VALID,0.130078,
2010-01-06, 03:28:05,VALID,1001.24,VALID,0,VALID,90.8752,VALID,0,VALID,25.2397,VALID,349,VALID,0,
2010-01-06, 03:29:05,VALID,1001.28,VALID,0,VALID,90.8981,VALID,0,VALID,25.2806,VALID,349,VALID,0,
2010-01-06, 03:30:05,VALID,1001.31,VALID,0,VALID,90.9515,VALID,0,VALID,25.2806,VALID,349,VALID,0,
2010-01-06, 03:31:05,VALID,1001.36,VALID,0,VALID,90.9363,VALID,0,VALID,25.2611,VALID,349,VALID,0,
2010-01-06, 03:32:05,VALID,1001.38,VALID,0,VALID,90.8981,VALID,0,VALID,25.2592,VALID,349,VALID,0,
2010-01-06, 03:33:05,VALID,1001.43,VALID,0,VALID,90.9134,VALID,0,VALID,25.2806,VALID,349,VALID,0.0148437,
2010-01-06, 03:34:05,VALID,1001.44,VALID,0,VALID,90.982,VALID,0,VALID,25.3195,VALID,349,VALID,0.0699219,
2010-01-06, 03:35:05,VALID,1001.45,VALID,0,VALID,91.0431,VALID,0.100563,VALID,25.2786,VALID,349,VALID,0,
2010-01-06, 03:36:05,VALID,1001.46,VALID,0,VALID,91.0965,VALID,0,VALID,25.3,VALID,349,VALID,0,
2010-01-06, 03:37:05,VALID,1001.48,VALID,0,VALID,91.1575,VALID,0,VALID,25.3,VALID,349,VALID,0,
2010-01-06, 03:38:05,VALID,1001.5,VALID,0,VALID,91.1728,VALID,0,VALID,25.2806,VALID,349,VALID,0,
2010-01-06, 03:39:05,VALID,1001.56,VALID,0,VALID,91.188,VALID,0,VALID,25.2611,VALID,349,VALID,0,
2010-01-06, 03:40:05,VALID,1001.58,VALID,0,VALID,91.1575,VALID,0,VALID,25.2416,VALID,349,VALID,0,
2010-01-06, 03:41:05,VALID,1001.65,VALID,0,VALID,91.2033,VALID,0,VALID,25.2221,VALID,349,VALID,0,
2010-01-06, 03:42:05,VALID,1001.69,VALID,0,VALID,91.2567,VALID,0,VALID,25.2221,VALID,349,VALID,0,
2010-01-06, 03:43:05,VALID,1001.74,VALID,0,VALID,91.333,VALID,0,VALID,25.2007,VALID,349,VALID,0,
2010-01-06, 03:44:05,VALID,1001.74,VALID,0,VALID,91.3711,VALID,0,VALID,25.224,VALID,349,VALID,0,
2010-01-06, 03:45:05,VALID,1001.82,VALID,0,VALID,91.4245,VALID,0,VALID,25.2221,VALID,349,VALID,0,
2010-01-06, 03:46:05,VALID,1001.85,VALID,0,VALID,91.4779,VALID,0,VALID,25.2221,VALID,349,VALID,0,
2010-01-06, 03:47:05,VALID,1001.84,VALID,0,VALID,91.5237,VALID,0,VALID,25.2435,VALID,349,VALID,0,
2010-01-06, 03:48:04,VALID,1001.86,VALID,0,VALID,91.6076,VALID,0,VALID,25.2202,VALID,349,VALID,0,
2010-01-06, 03:49:04,VALID,1001.8,VALID,0,VALID,91.7297,VALID,0,VALID,25.2825,VALID,349,VALID,0.328906,